Location: Ariel
(45.9570°N, 122.5700°W)
Time: 12:55:36
(UTC-07:00)

Tiros 1 - Pass Details

Date: 27 July 2019
Orbit: 631 x 664 km, 48.4° (Epoch: 25 August)

Event Time Altitude Azimuth Distance (km) Brightness Sun altitude
Rises 18:02:01 0° 281° (W) 2,997 11.8 26.5°
Reaches altitude 10° 18:05:35 10° 254° (WSW) 2,077 11.3 25.8°
Maximum altitude 18:07:44 13° 227° (SW) 1,877 10.4 25.5°
Drops below altitude 10° 18:09:53 10° 200° (SSW) 2,066 10.1 25.1°
Sets 18:13:26 0° 173° (S) 2,966 10.5 24.5°
